Air Resources Laboratory banner image
Air Resources Laboratory web site National Oceanic and Atmospheric Administration (NOAA)

mt roundup


Office: TFX

ASUS45 KTFX 131310
RWRMT
MONTANA REGIONAL WEATHER ROUNDUP
NATIONAL WEATHER SERVICE GREAT FALLS MT
600 AM MST WED DEC 13 2017

NOTE: "FAIR" INDICATES FEW OR NO CLOUDS BELOW 12000 FEET WITH NO
SIGNIFICANT WEATHER AND/OR OBSTRUCTIONS TO VISIBILITY.

MTZ001>007-043-131400-
WEST OF THE DIVIDE

CITY           SKY/WX    TMP DP  RH WIND       PRES   REMARKS
KALISPELL      CLOUDY    23  20  88 CALM      30.38F
MISSOULA       CLOUDY    21  19  92 W5        30.35S
BUTTE          CLOUDY    26  21  81 CALM      30.24F
MULLAN PASS    FLURRIES  25  13  60 NW6       30.27R WCI  18
ANACONDA         N/A     28  16  59 SW5       30.24F
DEER LODGE       N/A     21  19  93 W5        30.28S
EUREKA           N/A     21  19  93 MISG      30.43S
HAMILTON         N/A     21  19  93 CALM      30.31F
LIBBY            N/A     25  21  86 CALM      30.40F
RONAN            N/A     24  21  88 CALM      30.37S VSB 0
$$

MTZ008-052>055-131400-
SOUTHWEST MONTANA

CITY           SKY/WX    TMP DP  RH WIND       PRES   REMARKS
BOZEMAN        FAIR      16  12  84 CALM      30.25F
DILLON         CLOUDY    33  19  56 S7        30.23F WCI  27
W YELLOWSTONE  FAIR       3   1  92 CALM      30.30S
ENNIS          CLOUDY    30  16  55 S7        30.29R WCI  23
THREE FORKS      N/A     14  11  88 CALM      30.20F
$$

MTZ009-010-012-014-046-048-049-054-131400-
EAST SLOPES AND CENTRAL MONTANA

CITY           SKY/WX    TMP DP  RH WIND       PRES   REMARKS
CUT BANK       FAIR      30  14  51 W5        30.20F
GREAT FALLS    FAIR      24  13  62 SW3       30.23F
MALMSTROM AFB  FAIR      22  14  69 SW5       30.24S
HELENA         FAIR      19  15  84 CALM      30.25F
BOWMANS CRNR   MOCLDY    31   9  39 SW3       30.19F
CHOTEAU          N/A     30  14  51 W5        30.23F
FAIRFIELD      MOCLDY    27  13  56 CALM      30.21F
POWER          FAIR      25  13  60 W6        30.22R WCI  18
RAYNESFORD     FAIR      26  15  65 CALM      30.23S
ULM            FAIR      27  16  62 SE3       30.23S
$$

MTZ011-013-016-021-045-047-050-051-131400-
NORTH CENTRAL MONTANA

CITY           SKY/WX    TMP DP  RH WIND       PRES   REMARKS
HAVRE          FAIR      25  18  74 SW12      30.21S WCI  14
LEWISTOWN      FAIR      32  19  58 W8        30.21S WCI  25
N BAR RANCH    FAIR      34  16  47 NW8G16    30.19S WCI  27
CHINOOK          N/A     27  19  74 W9        30.20S WCI  17
DENTON         FAIR      28  18  66 SW10      30.18S WCI  18
GEYSER         FAIR      31  15  50 SW14      30.20F WCI  21
GRASS RANGE    MOCLDY    35  19  52 W21       30.15S WCI  23
STANFORD       FAIR      29  17  59 NW9       30.20  WCI  21
WINIFRED       MOCLDY    31  19  62 W9        30.19S WCI  23
$$

MTZ017>020-022>027-061-062-131400-
NORTHEAST MONTANA

CITY           SKY/WX    TMP DP  RH WIND       PRES   REMARKS
GLASGOW        FAIR      32  24  72 NW13      30.11R WCI  22
GLENDIVE       FAIR      34  24  67 NW22      30.04F WCI  22
JORDAN           N/A     34  23  64 NW13      30.11F WCI  25
SIDNEY         FAIR      34  26  72 NW21G26   30.03R WCI  22
WOLF POINT     FAIR      32  24  72 NW13      30.09R WCI  22
MALTA          CLEAR     27  19  74 W9G15     30.16R WCI  17
PLENTYWOOD       N/A     30  27  86 W14       29.99R WCI  20
POPLAR           N/A     30  25  80 W8        30.08R WCI  23
$$

MTZ028>42-056>058-131400-
SOUTHCENTRAL AND SOUTHEAST MONTANA

CITY           SKY/WX    TMP DP  RH WIND       PRES   REMARKS
BAKER          FAIR      32  25  75 NW18      30.03S WCI  20
BILLINGS       FAIR      33  16  49 NW9       30.19S WCI  25
LIVINGSTON     FAIR      29  14  53 NW13      30.21F WCI  19
MILES CITY     FAIR      35  20  54 W14       30.12R WCI  26
BIG TIMBER     CLEAR     36  10  35 W15       30.21S WCI  26
FORSYTH          N/A     36  16  44 W10       30.15R WCI  28
LAUREL           N/A     36  12  38 CALM      30.20R
ROUNDUP          N/A     36  12  37 SW6       30.07S WCI  31
$$

REGIONAL REPORTS...DAKOTAS

CITY           SKY/WX    TMP DP  RH WIND       PRES   REMARKS
WILLISTON      FAIR      33  27  78 NW20      29.97R WCI  21
MINOT          MOCLDY    34  29  82 NW22G31   29.84R WCI  22
DICKINSON      FAIR      31  26  82 NW20      29.91R WCI  19
BEACH          FAIR      32  25  74 NW23G32   30.03R WCI  19
CROSBY         FAIR      30  28  93 NW18      29.94R WCI  18
TIOGA          FAIR      30  32 100 NW18G25   29.93R WCI  18
WATFORD CITY   FAIR      32  28  86 NW18G25   29.95R WCI  20
BISMARCK       FAIR      36  30  79 NW22G35   29.84R WCI  25
GRAND FORKS    CLOUDY    28  25  88 N29G39    29.67R WCI  12
FARGO          CLOUDY    31  26  82 N35G45    29.66R WCI  15
BUFFALO SD       N/A     34  23  64 NW12      29.96R WCI  25
RAPID CITY     FAIR      44  16  32 NW32G41   29.97R
$$

REGIONAL REPORTS...WYOMING/IDAHO/WASHINGTON

CITY           SKY/WX    TMP DP  RH WIND       PRES   REMARKS
GILLETTE       FAIR      35  13  40 NW17      30.13S WCI  25
SHERIDAN       FAIR      33  16  49 NW10      30.17R WCI  25
BUFFALO WY     FAIR      38  14  37 N16       30.13F WCI  29
CODY           FAIR      31  10  41 CALM      30.20S
YELLOWSTONE LA   N/A      7   4  87 CALM      30.29F
IDAHO FALLS    CLOUDY    18  17  96 SW3       30.35S FOG
SALMON         CLOUDY    18  15  88 CALM      30.41F
BOISE          CLOUDY    22  20  92 CALM      30.46S
SPOKANE        FLURRIES  25  23  92 E5        30.42F
$$

REGIONAL REPORTS...ALBERTA

CITY           SKY/WX    TMP DP  RH WIND       PRES   REMARKS
EDMONTON       CLEAR     36  25  64 W10       30.13S WCI  28
CALGARY        MOCLDY    36  18  48 SW6       30.20S WCI  31
LETHBRIDGE     PTCLDY    28  18  64 SW10      30.21F WCI  19
MEDICINE HAT   PTCLDY    25  21  86 S7        30.20S WCI  17
$$

REGIONAL REPORTS...SASKATCHEWAN

CITY           SKY/WX    TMP DP  RH WIND       PRES   REMARKS
SWIFT CURRENT  MOCLDY    27  25  93 W14       30.07S WCI  15
REGINA         PTCLDY    28  25  86 NW15      29.96R WCI  17
SASKATOON      MOCLDY    28  25  86 W14       30.02F WCI  17
$$